Airfield :
LOGIN :

Register | Disclaimer

   EN    FR    IT 

 










Legend :    VFR   Marginal VFR   IFR   Intensive IFR   Very Intensive IFR
Visi :
Ceiling :
>= 8 km
>= 3000ft
5 to 8 km
1000 to 3000 ft
1500m to 5 km
500 to 1000 ft
800 to 1500m
200 to 500 ft
< 800m
< 200 ft
Symbols :   Thunderstorms  Fog  Heavy snow  Heavy precipitations  Wind > 20 kt
SIGMETs :     Misc.  Thunderstorms  Icing  Turbulence  Mountain Waves  Volcanic Ashes






- Airport Elevation : 1036 ft
- IATA code : ERF


EDDE - Erfurt

CURRENT METAR :
  • 270250Z 21008KT 9999 FEW046 07/04 Q1006

EXPIRED METARs :
  • 270220Z 21010KT CAVOK 07/05 Q1007
  • 270150Z 22011KT CAVOK 08/05 Q1006
  • 270120Z 22009KT CAVOK 08/04 Q1006
  • 270050Z 21008KT CAVOK 07/04 Q1007
  • 270020Z 21008KT CAVOK 07/05 Q1007

TAF TAF EDDE
Valid from the 27 at 00:00 until the 28 at 00:00 UTC


262300Z 2700/2724 20010KT CAVOK
BECMG 2707/2709 21015G25KT
TEMPO 2716/2722 21012KT



MET'MAP, your aeronautical weather chart ! - Copyright ORBIFLY December 2007 - Disclaimer

ORBIFLY MET'MAP TEAM :

Programming & Development : Alexandra Zaïnal
Concept & original design : Baudouin d'Aumeries
Assistance for programming : Marc-Olivier Méhu
Technical & hardware support : Manuel Goepfert

Contact : metmap@orbifly.com




SOURCES & CREDITS :

   NOAA